Weather History for West Point, VA

Change the Weather History Date:

Tuesday, May 28, 2013

  Actual Average (KRIC) Record (KRIC)
Temperature  
Mean Temperature 73 °F 70 °F  
Max Temperature 84 °F 81 °F 100 °F (1941)
Min Temperature 62 °F 59 °F 38 °F (1961)
Degree Days  
Heating Degree Days 0 1  
Month to date heating degree days 71  
Since 1 July heating degree days 3763  
Cooling Degree Days 8 6  
Month to date cooling degree days 98  
Year to date cooling degree days 140  
Growing Degree Days 23 (Base 50)    
Moisture  
Dew Point 63 °F    
Average Humidity 70    
Maximum Humidity 96    
Minimum Humidity 56    
Precipitation  
Precipitation 0.00 in 0.13 in 1.38 in (1917)
Month to date precipitation 3.39  
Year to date precipitation 16.50  
Snow  
Snow 0.00 in 0.00 in 0.00 in (2002)
Month to date snowfall 0.0  
Since 1 July snowfall 10.3  
Snow Depth -    
Sea Level Pressure  
Sea Level Pressure 30.19 in    
Wind  
Wind Speed 6 mph (South)    
Max Wind Speed 14 mph    
Max Gust Speed 20 mph    
Visibility 10 miles    
Events      
T = Trace of Precipitation, MM = Missing Value Source: NWS Daily Summary

Daily Weather History Graph

Daily Weather History Graph

Search for Another Location

Airport:

Trip Planner

Search our weather history database for the weather conditions in past years. The results will help you decide how hot, cold, wet, or windy it might be!

Date:

Astronomy

May. 28, 2013 Rise Set
Actual Time 5:49 AM EDT 8:20 PM EDT
Civil Twilight 5:18 AM EDT 8:50 PM EDT
Nautical Twilight 4:41 AM EDT 9:28 PM EDT
Astronomical Twilight 3:59 AM EDT 10:09 PM EDT
Moon 11:44 PM EDT (5/28) 9:32 AM EDT (5/28)
Length of Visible Light 15h 31m
Length of Day
14h 30m
Waning Gibbous, 83% of the Moon is Illuminated
May 28
Waning Gibbous
May 31
Last Quarter
Jun 8
New
Jun 16
First Quarter
Jun 23
Full

Hourly Weather History & Observations

Time (EDT) Temp. Heat Index Dew Point Humidity Pressure Visibility Wind Dir Wind Speed Gust Speed Precip Events Conditions
12:15 AM 63.7 °F - 62.4 °F 96% 30.22 in 10.0 mi Calm Calm - N/A   Mostly Cloudy
12:35 AM 64.2 °F - 62.6 °F 94% 30.22 in 10.0 mi Calm Calm - N/A   Scattered Clouds
12:55 AM 66.2 °F - 59.0 °F 78% 30.22 in 10.0 mi South 4.6 mph - N/A   Clear
1:15 AM 65.3 °F - 58.5 °F 78% 30.22 in 10.0 mi South 3.5 mph - N/A   Clear
1:35 AM 65.1 °F - 57.9 °F 77% 30.22 in 10.0 mi South 3.5 mph - N/A   Clear
1:55 AM 65.3 °F - 57.4 °F 76% 30.21 in 10.0 mi South 5.8 mph - N/A   Clear
2:15 AM 64.9 °F - 57.2 °F 76% 30.22 in 10.0 mi South 4.6 mph - N/A   Clear
2:35 AM 64.6 °F - 56.7 °F 75% 30.22 in 10.0 mi South 4.6 mph - N/A   Scattered Clouds
2:55 AM 64.6 °F - 56.3 °F 74% 30.21 in 10.0 mi SSE 4.6 mph - N/A   Mostly Cloudy
3:15 AM 63.9 °F - 55.8 °F 75% 30.21 in 10.0 mi SSE 4.6 mph - N/A   Scattered Clouds
3:35 AM 63.0 °F - 55.6 °F 77% 30.20 in 10.0 mi SE 4.6 mph - N/A   Clear
3:55 AM 62.6 °F - 55.8 °F 78% 30.20 in 10.0 mi SSE 4.6 mph - N/A   Clear
4:15 AM 62.8 °F - 55.4 °F 77% 30.21 in 10.0 mi SE 4.6 mph - N/A   Scattered Clouds
4:35 AM 62.8 °F - 55.8 °F 78% 30.21 in 10.0 mi SE 3.5 mph - N/A   Mostly Cloudy
4:55 AM 62.6 °F - 55.9 °F 79% 30.21 in 10.0 mi SSE 3.5 mph - N/A   Scattered Clouds
5:15 AM 62.6 °F - 56.5 °F 80% 30.21 in 10.0 mi SSE 3.5 mph - N/A   Scattered Clouds
5:35 AM 62.8 °F - 56.7 °F 80% 30.21 in 10.0 mi Calm Calm - N/A   Scattered Clouds
5:55 AM 62.4 °F - 56.7 °F 81% 30.22 in 10.0 mi SSE 3.5 mph - N/A   Scattered Clouds
6:15 AM 63.0 °F - 57.2 °F 81% 30.22 in 10.0 mi SSE 3.5 mph - N/A   Scattered Clouds
6:35 AM 63.9 °F - 58.1 °F 81% 30.23 in 10.0 mi South 3.5 mph - N/A   Scattered Clouds
6:55 AM 65.5 °F - 58.6 °F 79% 30.23 in 10.0 mi South 4.6 mph - N/A   Mostly Cloudy
7:15 AM 66.2 °F - 58.6 °F 77% 30.23 in 10.0 mi South 4.6 mph - N/A   Scattered Clouds
7:35 AM 67.1 °F - 59.2 °F 76% 30.24 in 10.0 mi SSW 9.2 mph - N/A   Scattered Clouds
7:55 AM 68.2 °F - 59.9 °F 75% 30.24 in 10.0 mi SSW 10.4 mph - N/A   Scattered Clouds
8:15 AM 67.5 °F - 59.9 °F 77% 30.24 in 10.0 mi SSW 9.2 mph 16.1 mph N/A   Mostly Cloudy
8:35 AM 68.7 °F - 61.0 °F 76% 30.24 in 10.0 mi SSW 9.2 mph - N/A   Mostly Cloudy
8:55 AM 69.8 °F - 61.7 °F 75% 30.24 in 10.0 mi SSW 8.1 mph - N/A   Mostly Cloudy
9:15 AM 70.7 °F - 62.4 °F 75% 30.24 in 10.0 mi SSW 9.2 mph - N/A   Scattered Clouds
9:35 AM 71.4 °F - 63.0 °F 75% 30.24 in 10.0 mi SSW 8.1 mph - N/A   Scattered Clouds
9:55 AM 71.8 °F - 63.9 °F 76% 30.23 in 10.0 mi South 5.8 mph - N/A   Scattered Clouds
10:15 AM 73.4 °F - 64.0 °F 72% 30.23 in 10.0 mi SSW 9.2 mph - N/A   Clear
10:35 AM 74.3 °F - 64.2 °F 71% 30.22 in 10.0 mi SSW 11.5 mph - N/A   Scattered Clouds
10:55 AM 75.4 °F - 64.4 °F 69% 30.23 in 10.0 mi SSW 11.5 mph 18.4 mph N/A   Scattered Clouds
11:15 AM 76.5 °F - 65.1 °F 68% 30.23 in 10.0 mi SSW 12.7 mph 17.3 mph N/A   Scattered Clouds
11:35 AM 77.0 °F - 65.7 °F 68% 30.22 in 10.0 mi SSW 9.2 mph - N/A   Mostly Cloudy
11:55 AM 78.6 °F - 66.0 °F 65% 30.21 in 10.0 mi South 11.5 mph 18.4 mph N/A   Scattered Clouds
12:15 PM 79.3 °F - 66.4 °F 64% 30.20 in 10.0 mi SSW 10.4 mph - N/A   Clear
12:35 PM 79.7 °F - 66.0 °F 63% 30.20 in 10.0 mi South 12.7 mph 19.6 mph N/A   Clear
12:55 PM 79.3 °F - 66.4 °F 64% 30.19 in 10.0 mi SSW 10.4 mph 17.3 mph N/A   Mostly Cloudy
1:15 PM 79.9 °F - 66.7 °F 64% 30.19 in 10.0 mi SSW 10.4 mph - N/A   Mostly Cloudy
1:35 PM 80.4 °F 82.7 °F 66.9 °F 63% 30.18 in 10.0 mi SSW 8.1 mph - N/A   Mostly Cloudy
1:55 PM 80.8 °F 83.2 °F 66.9 °F 63% 30.17 in 10.0 mi SSW 5.8 mph 17.3 mph N/A   Mostly Cloudy
2:15 PM 82.6 °F 85.1 °F 66.7 °F 59% 30.17 in 10.0 mi SSW 10.4 mph 17.3 mph N/A   Scattered Clouds
2:35 PM 82.4 °F 84.8 °F 66.9 °F 59% 30.17 in 10.0 mi South 8.1 mph - N/A   Scattered Clouds
2:55 PM 82.4 °F 84.6 °F 66.2 °F 58% 30.16 in 10.0 mi SSW 11.5 mph 16.1 mph N/A   Overcast
3:15 PM 83.7 °F 86.5 °F 67.3 °F 58% 30.16 in 10.0 mi SW 9.2 mph - N/A   Overcast
3:35 PM 82.0 °F 84.5 °F 66.9 °F 60% 30.16 in 10.0 mi South 9.2 mph 17.3 mph N/A   Overcast
3:55 PM 84.4 °F 87.3 °F 67.5 °F 57% 30.16 in 10.0 mi SSW 9.2 mph - N/A   Overcast
4:15 PM 82.9 °F 85.6 °F 67.1 °F 59% 30.15 in 10.0 mi South 10.4 mph - N/A   Overcast
4:35 PM 84.6 °F 87.4 °F 67.1 °F 56% 30.14 in 10.0 mi SSW 13.8 mph 18.4 mph N/A   Scattered Clouds
4:55 PM 83.7 °F 86.5 °F 67.5 °F 58% 30.14 in 10.0 mi SSW 9.2 mph - N/A   Clear
5:15 PM 83.7 °F 86.5 °F 67.6 °F 58% 30.14 in 10.0 mi SSW 8.1 mph - N/A   Clear
5:35 PM 83.8 °F 87.0 °F 68.4 °F 59% 30.13 in 10.0 mi SSW 9.2 mph - N/A   Clear
5:55 PM 83.5 °F 86.2 °F 67.5 °F 58% 30.13 in 10.0 mi South 10.4 mph - N/A   Clear
6:15 PM 83.3 °F 85.7 °F 66.7 °F 57% 30.13 in 10.0 mi South 10.4 mph - N/A   Clear
6:35 PM 82.6 °F 85.1 °F 66.7 °F 59% 30.12 in 10.0 mi South 10.4 mph - N/A   Clear
6:55 PM 82.0 °F 84.7 °F 67.3 °F 61% 30.13 in 10.0 mi South 5.8 mph - N/A   Clear
7:15 PM 81.7 °F 84.2 °F 66.9 °F 61% 30.13 in 10.0 mi South 6.9 mph - N/A   Clear
7:35 PM 80.6 °F 82.9 °F 66.9 °F 63% 30.13 in 10.0 mi South 5.8 mph - N/A   Clear
7:55 PM 79.3 °F - 66.6 °F 65% 30.13 in 10.0 mi South 8.1 mph - N/A   Clear
8:15 PM 78.4 °F - 66.6 °F 67% 30.13 in 10.0 mi South 5.8 mph - N/A   Clear
8:35 PM 77.9 °F - 66.2 °F 67% 30.13 in 10.0 mi South 6.9 mph - N/A   Clear
8:55 PM 77.2 °F - 66.2 °F 69% 30.13 in 10.0 mi South 5.8 mph - N/A   Clear
9:15 PM 76.8 °F - 65.8 °F 69% 30.14 in 10.0 mi South 6.9 mph - N/A   Clear
9:35 PM 76.3 °F - 65.7 °F 70% 30.14 in 10.0 mi South 8.1 mph - N/A   Clear
9:55 PM 76.1 °F - 65.5 °F 70% 30.15 in 10.0 mi South 6.9 mph - N/A   Clear
10:15 PM 75.7 °F - 65.5 °F 70% 30.15 in 10.0 mi South 6.9 mph - N/A   Clear
10:35 PM 75.6 °F - 65.5 °F 71% 30.16 in 10.0 mi South 8.1 mph - N/A   Clear
10:55 PM 75.2 °F - 65.3 °F 71% 30.16 in 10.0 mi South 6.9 mph - N/A   Clear
11:15 PM 74.5 °F - 65.3 °F 73% 30.16 in 10.0 mi South 8.1 mph - N/A   Clear
11:35 PM 73.9 °F - 65.3 °F 74% 30.16 in 10.0 mi South 8.1 mph - N/A   Clear
11:55 PM 73.9 °F - 65.3 °F 74% 30.16 in 10.0 mi South 9.2 mph - N/A   Clear